Regional Weather Roundup
Issued by NWS Midland/Odessa, TX

Skip options and go directly to product.
Home | Oldest Version | Previous Version | Current Version | All | Text Only | Save Text | Print | Product List | Glossary Off

Skip product version selection by date and time.   

405
ASUS44 KMAF 272301
RWRMAF
MIDLAND AREA WEATHER ROUNDUP
NATIONAL WEATHER SERVICE MIDLAND TX
500 PM CST TUE JAN 27 2015

...IN SOUTHWEST TEXAS AND SOUTHEAST NEW MEXICO...

CITY           SKY/WX    TMP DP  RH WIND       PRES   REMARKS
ALPINE         SUNNY     70  44  39 S3        30.28S
ANDREWS        FAIR      72  29  20 W5        30.17F
ARTESIA        SUNNY     68  36  30 SE3       30.18S
BIG SPRING     SUNNY     74  26  17 SE5       30.17S
CARLSBAD       SUNNY     72  34  24 SE8       30.15F
DRYDEN           N/A     79  37  22 S5        30.13F
FORT STOCKTON  SUNNY     71  38  29 E5        30.18F
GUAD PASS      SUNNY     64  39  39 SW21      30.26F
HOBBS          SUNNY     70  28  21 S6        30.18F
MARFA          SUNNY     68  45  42 S10       30.26S
MIDLAND AIRPK  SUNNY     74  31  20 SW6       30.17S
MIDLAND INTL   SUNNY     73  33  23 S5        30.16F
ODESSA         SUNNY     72  29  20 W5        30.17F
PECOS          SUNNY     73  38  28 CALM      30.16F
PRESIDIO       FAIR      70  43  38 CALM      30.18F
SEMINOLE       SUNNY     72  29  20 S5        30.17F
SNYDER         SUNNY    N/A N/A N/A S8        30.15F
WINK           SUNNY     72  30  21 W6        30.15F
$$
...OTHER STATIONS IN TEXAS...

CITY           SKY/WX    TMP DP  RH WIND       PRES   REMARKS
ABILENE        SUNNY     76  36  23 SW9       30.12F
AMARILLO       SUNNY     69  32  25 S8        30.13F
AUSTIN         MOSUNNY   78  43  28 E5        30.11F
BROWNSVILLE    SUNNY     78  42  27 S8        30.15F
CORPUS CHRISTI MOSUNNY   80  37  21 VRB5      30.12F
DALLAS FTW     PTCLDY    76  37  24 S5        30.10F
DEL RIO        SUNNY     79  35  20 SE3       30.11F
EL PASO        MOSUNNY   68  39  34 CALM      30.20F
HOUSTON INT    CLEAR     78  43  28 CALM      30.10S
LUBBOCK        PTSUNNY   72  32  23 SW10      30.14F
SAN ANGELO     SUNNY     77  29  17 CALM      30.12F
SAN ANTONIO    MOSUNNY   79  37  22 S9        30.11F
WACO           SUNNY     77  40  26 CALM      30.11S
WICHITA FALLS  NOT AVBL
$$
...OTHER LOCATIONS IN NEW MEXICO...

CITY           SKY/WX    TMP DP  RH WIND       PRES   REMARKS
ALAMAGORDO     SUNNY     66  36  32 CALM      30.22F
ALBUQUERQUE    MOSUNNY   59  27  29 SW3       30.26S
CANNON AFB     SUNNY     67  29  24 SW10      30.16F
CLOVIS         SUNNY     66  30  26 SW12      30.16F
HOLLOMAN AFB   SUNNY     65  40  39 CALM      30.20F
ROSWELL        SUNNY     69  31  24 S7        30.17S
RUIDOSO        SUNNY     57  36  44 N9        30.31S
SANTA FE       SUNNY     58  27  30 W10       30.25F
TRUTH OR CONSE SUNNY     65  36  34 S5        30.22S
TUCUMCARI      SUNNY     68  32  26 S12       30.11F
$$

USA.gov is the U.S. government's official web portal to all federal, state and local government web resources and services.